CAPE
1804 1836 2478 2250 2403 2299 2115 1972 2800 2711 2419 1997 2067 2201 2005 2067 1942 2208 2408 2091 2064 2029 1934 2333 2535 2707 1955 1288 1728 940 1326 1016 770 706 1483 2306 3700 2706 2170 2575 2292 2102 1577
2475 1920 2876 2420 2224 2301 2628 2317 2229 2524 2620 2690 2630 2310 2050 2047 1991 2261 1899 1911 1950 2197 2108 2291 1964 1830 2797 2829 2015 3530 2703 2535 1899 3094 2088 1917 2649 3722 3494 3734 2087 1254 1180
1995 2217 2473 2534 2623 2620 2655 1112 950 804 490 579 959 2105 2029 1901 1957 1912 1630 1376 1737 1740 1857 2047 1928 2017 2363 2881 1827 2816 2863 3089 2268 2165 1355 1836 2015 2439 2595 2725 3035 3006 2126
2065 2448 2794 2507 1193 1266 989 893 713 689 545 457 431 424 461 449 350 540 1791 1411 1350 1562 1641 1317 1430 1780 1845 1901 2245 2349 2648 2586 2308 2498 1933 2426 3252 2607 2738 2510 2071 3521 2010
2687 2165 2488 2197 1722 1435 1288 1001 744 609 514 406 339 343 225 34 14 118 384 92 114 166 189 148 799 54 56 240 594 1640 1686 2008 2249 2089 2132 2624 2339 1892 2591 2527 2031 1684 2545
3117 2571 3006 2519 1919 1679 1429 1086 756 435 352 261 175 95 8 0 0 0 0 0 0 1 4 8 14 112 7 0 0 0 0 86 554 617 206 300 1389 567 232 164 175 150 152
3375 3455 2899 2293 1947 1580 1154 572 320 268 244 178 91 44 102 0 0 0 0 2 1 11 7 9 1 31 0 0 0 0 0 0 0 0 7 25 466 629 947 975 999 520 453
3303 2879 2678 2167 1489 1000 639 518 347 131 53 17 10 9 13 0 0 0 0 0 3 5 7 9 12 10 0 0 0 0 1 2 1 15 64 36 27 1 13 109 206 211 218
2803 2070 1872 1459 1243 1274 1104 605 192 66 52 19 15 15 15 0 0 0 0 0 3 3 9 16 15 14 0 0 0 0 8 8 3 2 1 0 0 0 0 0 4 18 11
1389 981 1204 1098 662 1092 994 470 119 93 77 40 13 0 0 1 0 0 0 0 1 0 0 0 0 0 0 0 0 1 8 11 5 6 14 0 8 4 2 6 49 111 104
951 772 549 411 619 411 190 110 156 95 47 8 0 1 13 1 0 0 0 0 0 0 0 5 0 0 0 0 0 3 0 0 0 7 14 16 43 60 43 25 44 31 42
984 936 394 249 169 127 49 11 8 1 31 0 2 5 12 5 0 0 0 0 0 0 0 0 0 0 0 0 0 0 0 0 3 5 7 9 16 19 6 8 37 45 54
747 366 195 23 1 10 4 4 2 18 11 14 8 12 2 0 0 0 0 0 0 0 0 0 0 0 0 0 0 0 0 2 2 4 10 6 10 8 23 37 39 51 63
643 290 63 2 0 1 7 8 13 5 12 0 22 1 0 0 0 0 0 0 0 0 0 0 0 0 0 0 0 0 3 0 1 4 6 12 21 15 8 12 17 11 13
518 198 36 2 22 1 7 3 2 1 0 13 10 0 0 0 0 0 0 0 0 0 0 0 0 2 1 0 0 0 0 0 0 0 2 3 3 1 0 1 1 0 1
528 197 16 9 72 23 23 13 5 1 0 0 0 0 0 0 0 0 0 0 0 0 0 0 0 0 0 0 0 0 0 0 0 0 0 0 0 0 0 0 0 0 0
352 221 175 90 200 96 48 0 4 0 0 0 0 0 0 0 0 0 0 0 0 0 0 0 0 0 0 0 0 0 0 0 0 0 0 0 0 0 0 0 0 0 0
378 289 214 325 152 65 41 32 33 1 0 0 0 0 0 0 0 0 0 0 0 0 0 0 0 0 0 0 0 0 0 0 0 0 0 0 0 0 0 0 0 0 0
519 467 430 233 32 21 33 29 0 0 0 0 0 0 0 0 0 0 0 0 0 0 0 0 0 0 0 0 0 0 0 0 0 0 0 0 0 0 0 0 0 0 0
928 496 163 64 21 26 25 10 0 0 0 0 0 0 0 0 0 0 0 0 0 0 0 0 0 0 0 0 1 3 2 3 0 0 0 0 0 0 0 0 0 0 0
399 139 17 31 21 18 0 11 0 0 0 0 0 0 0 0 0 0 0 0 0 0 0 0 0 3 3 3 4 6 6 5 3 0 0 0 0 0 0 0 0 0 0
59 2 4 0 0 0 0 0 1 0 0 0 0 0 0 0 0 0 4 5 5 1 0 5 5 7 6 8 8 12 9 11 9 0 0 0 0 0 0 0 2 3 2
21 12 9 2 0 0 0 0 0 0 0 0 0 3 0 0 0 2 11 13 15 18 19 12 11 12 16 21 18 14 9 9 6 0 0 0 0 0 0 3 3 6 3
9 20 5 0 0 0 0 0 0 0 0 0 7 4 15 3 3 12 13 10 20 23 25 29 31 27 27 22 23 16 14 10 1 0 0 0 0 0 0 0 2 5 5
32 29 31 2 0 4 0 2 0 0 0 0 0 12 13 9 14 11 17 17 23 28 41 56 81 63 41 34 15 13 1 0 0 0 0 0 0 0 0 3 13 20 20
71 75 101 0 1 18 19 3 14 2 0 0 1 7 10 18 19 32 59 38 50 84 58 66 47 35 47 42 19 21 1 0 0 0 0 0 0 1 6 13 10 11 18
CIN
-0 -0 -6 -0 -0 -20 -1 -1 -1 -0 -0 -14 -0 -1 -0 -2 -1 -0 -0 -0 -0 -0 -0 -1 -0 -0 -6 -0 -23 -1 -1 -0 -0 -1 -2 -2 -1 -5 -2 -1 -1 -0 -4
-0 -0 -0 -0 -9 -0 -0 -0 -0 -0 -0 -0 -0 -0 -0 -0 -0 -1 -0 -0 -0 -0 -0 -0 -0 -0 -0 -4 -6 -11 -14 -18 -23 -7 -1 -23 -6 -2 -1 -0 -0 -0 -0
-0 -1 -1 -0 -2 -0 -1 -6 -16 -32 -71 -51 -13 -0 -0 -0 -0 -0 -0 -6 -4 -5 -0 -0 -2 -3 -0 -0 -7 -4 -6 -2 -16 -15 -11 -4 -6 -23 -18 -7 -4 -6 -1
-0 -4 -0 -0 -0 -0 -7 -14 -34 -45 -74 -74 -75 -65 -41 -30 -49 -29 -1 -1 -2 -2 -2 -6 -4 -1 -1 -7 -1 -1 -1 -0 -1 -0 -0 -2 -0 -10 -4 -8 -16 -8 -11
-0 -0 -0 -0 -1 -12 -18 -27 -43 -65 -80 -100 -109 -102 -113 -177 -48 -161 -55 -136 -116 -84 -76 -80 -7 -56 -11 -51 -13 -0 -0 -0 -0 -0 -0 -0 -3 -1 -1 -1 -1 -1 -1
-0 -0 -0 -1 -0 -1 -9 -37 -71 -121 -150 -158 -168 -174 -214 -0 -0 -0 -0 -3 -0 -0 -0 -1 -88 -80 -1 -0 -0 -0 -0 -96 -1 -0 -28 -40 -0 -11 -63 -78 -73 -83 -107
-0 -1 -9 -0 -0 -4 -21 -53 -86 -110 -159 -189 -213 -206 -175 -0 -0 -0 -0 -0 -0 -0 -0 -0 -0 -150 -0 -0 -0 -0 -0 -1 -0 -0 -105 -82 -30 -11 -2 -0 -0 -11 -15
-0 -1 -0 -0 -15 -39 -82 -87 -100 -148 -168 -91 -111 -59 -21 -0 -0 -0 -0 -0 -0 -0 -0 -0 -0 -0 -0 -0 -0 -0 -0 -0 -1 -1 -105 -109 -53 -4 -98 -97 -74 -76 -11
-0 -6 -8 -60 -64 -22 -39 -67 -128 -193 -188 -154 -0 -0 -0 -0 -0 -0 -0 -0 -0 -0 -0 -0 -0 -0 -0 -0 -0 -0 -0 -0 -0 -15 -12 -0 -0 -0 -0 -0 -0 -0 -0
-61 -51 -38 -49 -81 -30 -26 -37 -130 -137 -142 -192 -0 -0 -0 -2 -0 -0 -0 -0 -0 -0 -0 -0 -0 -0 -0 -0 -0 -0 -0 -3 -14 -2 -0 -0 -6 -8 -12 -4 -0 -86 -94
-74 -64 -41 -27 -0 -10 -14 -32 -39 -73 -123 -239 -0 -11 -0 -0 -0 -0 -0 -0 -0 -0 -0 -2 -0 -0 -0 -0 -0 -0 -0 -0 -0 -0 -0 -0 -1 -1 -1 -4 -4 -1 -0
-27 -8 -45 -29 -17 -40 -0 -0 -5 -8 -3 -0 -28 -8 -0 -0 -0 -0 -0 -0 -0 -0 -0 -0 -0 -0 -0 -0 -0 -0 -0 -0 -0 -0 -0 -0 -0 -0 -6 -4 -2 -0 -0
-42 -56 -20 -92 -6 -7 -0 -1 -2 -2 -64 -27 -48 -0 -0 -0 -0 -0 -0 -0 -0 -0 -0 -0 -0 -0 -0 -0 -0 -0 -0 -0 -0 -0 -0 -1 -0 -0 -0 -2 -2 -9 -1
-40 -70 -135 -0 -0 -0 -11 -1 -5 -46 -1 -2 -0 -0 -0 -0 -0 -0 -0 -0 -0 -0 -0 -0 -0 -0 -0 -0 -0 -0 -0 -0 -0 -0 -0 -0 -1 -2 -2 -0 -0 -0 -0
-73 -96 -133 -32 -21 -24 -3 -18 -4 -2 -0 -41 -0 -0 -0 -0 -0 -0 -0 -0 -0 -0 -0 -0 -0 -0 -0 -0 -0 -0 -0 -0 -0 -0 -0 -0 -0 -0 -0 -0 -0 -0 -0
-64 -59 -67 -32 -24 -18 -19 -23 -20 -10 -0 -0 -0 -0 -0 -0 -0 -0 -0 -0 -0 -0 -0 -0 -0 -0 -0 -0 -0 -0 -0 -0 -0 -0 -0 -0 -0 -0 -0 -0 -0 -0 -0
-81 -83 -55 -46 -25 -26 -28 -4 -16 -0 -0 -0 -0 -0 -0 -0 -0 -0 -0 -0 -0 -0 -0 -0 -0 -0 -0 -0 -0 -0 -0 -0 -0 -0 -0 -0 -0 -0 -0 -0 -0 -0 -0
-71 -68 -55 -13 -25 -47 -43 -35 -12 -6 -0 -0 -0 -0 -0 -0 -0 -0 -0 -0 -0 -0 -0 -0 -0 -0 -0 -0 -0 -0 -0 -0 -0 -0 -0 -0 -0 -0 -0 -0 -0 -0 -0
-34 -28 -15 -13 -46 -36 -22 -17 -0 -0 -0 -0 -0 -0 -0 -0 -0 -0 -0 -0 -0 -0 -0 -0 -0 -0 -0 -0 -0 -0 -0 -0 -0 -0 -0 -0 -0 -0 -0 -0 -0 -0 -0
-0 -14 -32 -42 -43 -23 -19 -17 -0 -0 -0 -0 -0 -0 -0 -0 -0 -0 -0 -0 -0 -0 -0 -0 -0 -0 -0 -0 -0 -0 -0 -0 -0 -0 -0 -0 -0 -0 -0 -0 -0 -0 -0
-17 -61 -58 -27 -13 -20 -0 -20 -0 -0 -0 -0 -0 -0 -0 -0 -0 -0 -0 -0 -0 -0 -0 -0 -0 -0 -0 -0 -0 -0 -0 -0 -0 -0 -0 -0 -0 -0 -0 -0 -0 -0 -0
-40 -0 -49 -0 -0 -0 -0 -0 -0 -0 -0 -0 -0 -0 -0 -0 -0 -0 -0 -0 -0 -0 -0 -0 -0 -0 -0 -0 -0 -0 -0 -0 -0 -0 -0 -0 -0 -0 -0 -0 -0 -0 -0
-39 -32 -53 -23 -0 -0 -0 -0 -0 -0 -0 -0 -0 -2 -0 -0 -0 -0 -0 -0 -0 -0 -0 -0 -0 -0 -0 -0 -0 -0 -0 -0 -0 -0 -0 -0 -0 -0 -0 -0 -0 -0 -0
-21 -25 -14 -0 -0 -0 -0 -0 -0 -0 -0 -0 -0 -0 -0 -0 -0 -0 -0 -0 -0 -0 -0 -0 -0 -0 -0 -0 -0 -0 -0 -0 -0 -0 -0 -0 -0 -0 -0 -0 -0 -0 -0
-0 -8 -4 -1 -1 -4 -1 -11 -0 -0 -0 -0 -0 -0 -0 -0 -0 -0 -0 -0 -0 -1 -1 -2 -5 -2 -0 -1 -0 -0 -1 -0 -0 -0 -0 -0 -0 -0 -0 -0 -0 -0 -0
-5 -1 -2 -1 -7 -7 -4 -0 -0 -0 -0 -0 -1 -0 -0 -0 -1 -1 -1 -2 -0 -0 -0 -1 -1 -5 -2 -0 -0 -0 -1 -0 -0 -0 -0 -0 -0 -0 -0 -0 -1 -0 -0
Wind_Speed
11 10 10 11 8 11 13 13 4 4 12 16 14 14 14 13 12 9 7 6 6 5 7 6 4 3 4 4 4 2 1 2 3 4 9 11 9 6 4 7 8 9 11
9 12 14 12 7 12 10 14 7 7 10 14 20 12 11 15 11 14 8 9 7 6 4 6 6 4 4 7 6 10 8 9 9 6 3 9 11 14 12 10 6 1 1
13 13 15 12 10 14 11 11 6 5 2 5 9 9 10 8 9 9 11 11 12 10 8 7 5 6 5 5 5 7 8 9 9 10 7 9 11 12 14 11 11 10 9
11 18 15 13 14 14 11 10 12 10 8 9 10 10 11 10 9 10 11 12 13 16 12 6 15 13 9 8 8 9 11 11 13 14 14 13 15 14 16 16 14 17 14
10 17 15 13 16 19 14 13 12 11 13 11 11 13 11 nan nan 19 15 nan 13 13 14 13 22 nan nan 23 16 20 17 17 18 19 20 22 21 23 25 24 22 20 24
13 17 16 20 20 22 21 18 15 15 15 14 15 nan nan nan nan nan nan nan nan nan nan nan nan 24 nan nan nan nan nan nan 20 22 21 23 26 25 26 26 27 26 24
20 23 24 25 24 24 25 23 22 19 20 18 nan nan 23 nan nan nan nan nan nan nan nan nan nan nan nan nan nan nan nan nan nan nan nan nan 24 29 28 26 26 26 24
26 29 33 33 29 26 25 27 27 25 nan nan nan nan nan nan nan nan nan nan nan nan nan nan nan nan nan nan nan nan nan nan nan nan nan nan nan nan nan 30 28 25 25
35 35 35 37 34 29 32 28 36 nan nan nan nan nan nan nan nan nan nan nan nan nan nan nan nan nan nan nan nan nan nan nan nan nan nan nan nan nan nan nan nan nan nan
40 47 34 34 34 37 37 33 28 nan nan nan nan nan nan nan nan nan nan nan nan nan nan nan nan nan nan nan nan nan nan nan nan nan nan nan nan nan nan nan nan 37 35
36 41 40 39 41 45 44 44 40 nan nan nan nan nan nan nan nan nan nan nan nan nan nan nan nan nan nan nan nan nan nan nan nan nan nan nan nan nan nan nan nan nan nan
33 36 43 43 45 42 nan nan nan nan nan nan nan nan nan nan nan nan nan nan nan nan nan nan nan nan nan nan nan nan nan nan nan nan nan nan nan nan nan nan nan nan nan
39 36 38 nan nan nan nan nan nan nan nan nan nan nan nan nan nan nan nan nan nan nan nan nan nan nan nan nan nan nan nan nan nan nan nan nan nan nan nan nan nan nan nan
38 36 nan nan nan nan nan nan nan nan nan nan nan nan nan nan nan nan nan nan nan nan nan nan nan nan nan nan nan nan nan nan nan nan nan nan nan nan nan nan nan nan nan
34 34 nan nan nan nan nan nan nan nan nan nan nan nan nan nan nan nan nan nan nan nan nan nan nan nan nan nan nan nan nan nan nan nan nan nan nan nan nan nan nan nan nan
35 31 nan nan nan nan nan nan nan nan nan nan nan nan nan nan nan nan nan nan nan nan nan nan nan nan nan nan nan nan nan nan nan nan nan nan nan nan nan nan nan nan nan
33 31 32 nan 30 nan nan nan nan nan nan nan nan nan nan nan nan nan nan nan nan nan nan nan nan nan nan nan nan nan nan nan nan nan nan nan nan nan nan nan nan nan nan
35 36 32 30 31 nan nan nan nan nan nan nan nan nan nan nan nan nan nan nan nan nan nan nan nan nan nan nan nan nan nan nan nan nan nan nan nan nan nan nan nan nan nan
36 35 31 32 nan nan nan nan nan nan nan nan nan nan nan nan nan nan nan nan nan nan nan nan nan nan nan nan nan nan nan nan nan nan nan nan nan nan nan nan nan nan nan
32 30 31 nan nan nan nan nan nan nan nan nan nan nan nan nan nan nan nan nan nan nan nan nan nan nan nan nan nan nan nan nan nan nan nan nan nan nan nan nan nan nan nan
28 29 nan nan nan nan nan nan nan nan nan nan nan nan nan nan nan nan nan nan nan nan nan nan nan nan nan nan nan nan nan nan nan nan nan nan nan nan nan nan nan nan nan
nan nan nan nan nan nan nan nan nan nan nan nan nan nan nan nan nan nan nan nan nan nan nan nan nan nan nan nan nan nan nan nan nan nan nan nan nan nan nan nan nan nan nan
nan nan nan nan nan nan nan nan nan nan nan nan nan nan nan nan nan nan nan nan nan nan nan nan nan nan nan nan nan nan nan nan nan nan nan nan nan nan nan nan nan nan nan
nan nan nan nan nan nan nan nan nan nan nan nan nan nan nan nan nan nan nan nan nan nan nan nan nan nan nan nan nan nan nan nan nan nan nan nan nan nan nan nan nan nan nan
nan nan nan nan nan nan nan nan nan nan nan nan nan nan nan nan nan nan nan nan nan nan nan nan nan nan nan nan nan nan nan nan nan nan nan nan nan nan nan nan nan nan nan
nan nan 37 nan nan nan nan nan nan nan nan nan nan nan nan nan nan nan nan nan nan nan nan nan nan nan nan nan nan nan nan nan nan nan nan nan nan nan nan nan nan nan nan
Wind_Direction
317 309 288 309 314 324 1 3 280 209 231 226 207 214 205 198 198 215 198 190 172 183 164 231 302 171 174 27 304 8 143 111 78 7 340 338 337 328 325 339 351 347 337
295 295 289 298 319 313 340 346 10 58 242 252 239 214 240 216 224 211 204 212 207 211 191 196 177 213 188 186 192 224 230 218 213 205 198 284 323 332 341 339 334 308 185
308 297 288 311 340 315 312 297 302 330 332 222 198 216 259 203 227 236 231 225 221 212 216 194 199 227 229 248 224 246 238 254 258 262 264 244 240 251 259 289 280 276 282
323 304 308 319 296 284 281 278 289 287 275 260 240 230 228 233 240 235 262 272 259 280 284 294 230 241 263 267 286 288 282 286 291 292 293 290 286 285 281 278 273 287 286
325 308 313 305 288 281 275 261 256 263 262 257 261 263 261 nan nan 222 226 nan 258 256 260 262 278 nan nan 262 257 267 275 280 286 292 294 293 298 300 298 297 300 293 297
293 288 284 276 279 291 277 270 270 269 263 257 259 nan nan nan nan nan nan nan nan nan nan nan nan 293 nan nan nan nan nan nan 274 273 278 276 277 278 285 282 276 281 286
298 284 279 286 281 287 273 265 265 260 258 261 nan nan 256 nan nan nan nan nan nan nan nan nan nan nan nan nan nan nan nan nan nan nan nan nan 274 270 271 276 280 277 282
301 297 298 303 286 275 278 266 262 256 nan nan nan nan nan nan nan nan nan nan nan nan nan nan nan nan nan nan nan nan nan nan nan nan nan nan nan nan nan 279 279 284 290
308 294 296 297 305 288 311 273 263 nan nan nan nan nan nan nan nan nan nan nan nan nan nan nan nan nan nan nan nan nan nan nan nan nan nan nan nan nan nan nan nan nan nan
304 296 303 310 312 316 301 289 271 nan nan nan nan nan nan nan nan nan nan nan nan nan nan nan nan nan nan nan nan nan nan nan nan nan nan nan nan nan nan nan nan 278 278
299 299 303 303 307 306 299 286 265 nan nan nan nan nan nan nan nan nan nan nan nan nan nan nan nan nan nan nan nan nan nan nan nan nan nan nan nan nan nan nan nan nan nan
301 299 298 295 293 291 nan nan nan nan nan nan nan nan nan nan nan nan nan nan nan nan nan nan nan nan nan nan nan nan nan nan nan nan nan nan nan nan nan nan nan nan nan
307 310 307 nan nan nan nan nan nan nan nan nan nan nan nan nan nan nan nan nan nan nan nan nan nan nan nan nan nan nan nan nan nan nan nan nan nan nan nan nan nan nan nan
309 308 nan nan nan nan nan nan nan nan nan nan nan nan nan nan nan nan nan nan nan nan nan nan nan nan nan nan nan nan nan nan nan nan nan nan nan nan nan nan nan nan nan
310 305 nan nan nan nan nan nan nan nan nan nan nan nan nan nan nan nan nan nan nan nan nan nan nan nan nan nan nan nan nan nan nan nan nan nan nan nan nan nan nan nan nan
302 301 nan nan nan nan nan nan nan nan nan nan nan nan nan nan nan nan nan nan nan nan nan nan nan nan nan nan nan nan nan nan nan nan nan nan nan nan nan nan nan nan nan
292 294 289 nan 292 nan nan nan nan nan nan nan nan nan nan nan nan nan nan nan nan nan nan nan nan nan nan nan nan nan nan nan nan nan nan nan nan nan nan nan nan nan nan
288 287 287 290 293 nan nan nan nan nan nan nan nan nan nan nan nan nan nan nan nan nan nan nan nan nan nan nan nan nan nan nan nan nan nan nan nan nan nan nan nan nan nan
279 280 280 282 nan nan nan nan nan nan nan nan nan nan nan nan nan nan nan nan nan nan nan nan nan nan nan nan nan nan nan nan nan nan nan nan nan nan nan nan nan nan nan
283 279 280 nan nan nan nan nan nan nan nan nan nan nan nan nan nan nan nan nan nan nan nan nan nan nan nan nan nan nan nan nan nan nan nan nan nan nan nan nan nan nan nan
283 289 nan nan nan nan nan nan nan nan nan nan nan nan nan nan nan nan nan nan nan nan nan nan nan nan nan nan nan nan nan nan nan nan nan nan nan nan nan nan nan nan nan
nan nan nan nan nan nan nan nan nan nan nan nan nan nan nan nan nan nan nan nan nan nan nan nan nan nan nan nan nan nan nan nan nan nan nan nan nan nan nan nan nan nan nan
nan nan nan nan nan nan nan nan nan nan nan nan nan nan nan nan nan nan nan nan nan nan nan nan nan nan nan nan nan nan nan nan nan nan nan nan nan nan nan nan nan nan nan
nan nan nan nan nan nan nan nan nan nan nan nan nan nan nan nan nan nan nan nan nan nan nan nan nan nan nan nan nan nan nan nan nan nan nan nan nan nan nan nan nan nan nan
nan nan nan nan nan nan nan nan nan nan nan nan nan nan nan nan nan nan nan nan nan nan nan nan nan nan nan nan nan nan nan nan nan nan nan nan nan nan nan nan nan nan nan
nan nan 277 nan nan nan nan nan nan nan nan nan nan nan nan nan nan nan nan nan nan nan nan nan nan nan nan nan nan nan nan nan nan nan nan nan nan nan nan nan nan nan nan